Theta_e
350 351 351 352 351 351 351 350 350 351 352 353 353 352 352 352 353 354 353 350 347 346 348 351 353 353 353 352 351 351 351 350 351 351 350 350 350 351 349 348 347 347 348 348 348 348 349 350 351 352 354 353 353 354 354 353 353 353 351 347 348 352 352 349 347 348 349 350 349 349 348 348 348 349 350 351 350 351 350 349 349 349 349 347 347
349 350 350 351 351 351 351 350 351 351 353 353 353 353 352 352 353 353 354 352 347 346 347 349 351 352 353 353 353 354 352 352 353 351 350 350 350 350 349 347 347 347 348 347 347 348 349 350 350 351 353 353 352 353 354 354 353 353 353 350 348 351 352 349 345 347 349 349 349 349 349 348 348 350 350 349 349 349 349 349 349 348 350 349 347
349 348 350 350 350 351 350 351 351 351 353 353 353 354 353 353 354 352 353 353 349 345 345 346 347 347 349 351 352 354 353 352 353 351 350 350 350 350 349 347 347 347 348 348 348 349 350 350 350 350 351 353 353 353 353 353 354 354 354 354 353 350 349 347 344 345 348 349 349 349 348 348 348 350 349 347 348 348 348 349 349 349 350 349 346
349 347 349 350 350 351 350 351 352 351 352 353 353 354 354 354 353 350 351 351 349 346 345 346 346 345 346 348 349 352 352 351 351 351 350 350 350 350 350 348 347 347 348 349 349 350 350 350 350 351 351 352 355 354 355 354 354 354 352 352 353 351 349 347 345 344 346 348 350 349 349 348 346 348 348 347 346 347 348 348 347 348 349 346 343
349 348 347 349 350 350 350 351 351 351 352 353 354 354 354 354 352 349 348 349 349 346 345 346 347 347 347 348 350 351 352 352 353 353 351 350 351 351 350 348 347 348 349 349 350 350 350 350 350 351 351 352 354 355 355 354 353 353 352 351 351 351 350 349 346 345 345 346 348 349 349 348 346 346 347 348 347 344 346 346 346 347 346 343 342
347 348 347 349 350 350 351 351 351 352 352 352 353 353 354 353 351 350 349 349 349 347 346 346 348 348 349 351 353 353 354 355 354 355 353 351 352 352 350 349 347 348 349 349 350 351 351 351 351 352 352 353 354 354 353 352 353 353 352 351 351 350 350 351 348 346 345 344 346 347 347 347 347 348 347 349 349 345 344 345 346 346 344 340 340
346 347 348 348 350 350 351 351 350 351 351 352 353 353 354 353 350 350 349 349 348 348 346 346 347 348 348 352 353 354 356 355 352 352 352 350 352 352 351 350 349 348 348 348 350 351 351 352 351 352 352 353 354 353 353 354 355 353 351 350 351 348 350 353 350 346 347 346 347 348 349 348 347 347 348 349 350 349 347 346 346 346 344 343 342
347 346 346 348 349 350 351 351 350 350 351 351 352 353 354 353 351 350 350 350 349 347 346 345 346 347 348 351 353 353 354 353 350 349 350 350 351 351 352 352 351 350 349 348 349 349 350 351 352 352 352 353 354 354 355 355 355 352 350 350 349 347 348 352 352 349 347 348 348 348 349 348 346 346 347 348 349 349 348 348 347 346 345 345 344
347 346 346 348 349 350 350 350 350 350 351 351 351 352 353 353 351 351 351 350 349 347 345 345 345 346 348 351 352 352 352 352 349 349 349 349 351 351 351 352 352 352 351 350 349 349 349 350 352 352 352 353 354 355 355 354 353 353 351 351 350 349 347 348 352 352 348 347 347 347 349 348 348 348 347 348 349 348 347 347 347 346 346 345 343
347 346 347 348 348 348 349 350 350 350 350 351 351 351 352 353 352 351 351 350 350 347 346 345 345 346 347 350 352 351 350 350 350 350 349 349 351 351 351 351 352 352 352 351 350 350 351 351 351 352 353 353 354 356 356 353 353 353 352 352 352 350 348 347 351 352 349 346 345 347 350 349 348 349 347 347 348 349 349 347 346 346 344 345 345
348 347 348 349 348 348 348 349 350 350 351 351 351 351 352 353 352 352 351 350 350 348 347 346 345 346 347 349 351 351 350 350 350 350 349 349 350 351 350 350 350 351 352 351 350 350 353 353 352 352 353 353 353 355 356 356 355 355 354 354 353 352 351 350 352 352 349 348 346 348 350 349 348 348 348 348 348 350 351 348 346 345 345 346 345
348 347 348 349 349 348 348 349 349 350 351 351 351 351 351 352 352 353 352 351 350 349 348 347 346 346 346 348 351 351 350 350 350 349 349 349 350 350 350 349 349 349 350 351 350 349 351 354 355 354 354 353 354 355 356 357 357 356 355 354 354 353 353 352 353 354 353 352 351 350 349 348 348 348 347 349 350 353 354 351 348 347 347 347 344
348 348 349 348 349 349 348 348 350 350 351 351 351 351 351 352 352 353 352 351 350 350 349 348 347 346 346 348 350 351 351 350 350 350 349 348 349 349 349 349 348 348 348 349 349 348 348 350 353 355 355 353 354 355 356 356 356 356 355 355 355 354 354 354 355 356 356 354 353 351 350 348 348 349 348 349 351 354 355 353 351 349 347 347 345
349 348 348 348 350 351 349 348 350 351 351 350 351 351 351 351 351 352 352 351 350 350 350 349 348 346 346 348 349 350 351 350 350 350 349 348 348 348 348 348 347 346 346 346 347 347 347 346 348 351 354 353 354 355 355 355 356 356 355 356 356 356 355 355 355 356 356 354 354 353 352 350 349 350 351 350 351 352 353 353 353 352 347 348 348
349 349 348 348 350 351 349 349 349 349 350 350 351 351 351 351 350 351 352 351 350 350 350 349 349 348 347 348 349 350 351 351 350 350 350 349 348 348 348 348 347 346 345 345 345 346 346 346 345 346 348 350 353 355 355 355 356 356 355 356 356 356 355 355 355 356 356 356 355 354 353 351 351 352 352 352 353 353 353 351 353 353 351 351 349
349 349 349 349 351 351 351 350 348 349 350 349 350 351 351 351 350 350 350 350 349 350 350 349 349 349 349 349 349 349 350 351 351 350 350 349 348 347 347 347 348 346 344 343 343 344 345 345 345 345 345 347 351 354 355 355 355 355 355 355 355 355 355 355 354 355 356 357 356 355 353 353 353 354 355 356 355 354 352 348 348 352 353 355 353
348 350 349 350 351 351 351 350 348 348 348 349 351 351 351 350 350 350 350 351 350 349 350 349 350 350 349 349 349 350 350 350 350 350 350 349 348 348 347 347 347 346 345 343 342 343 344 345 345 345 345 345 348 351 354 354 354 355 355 354 355 355 355 354 354 354 356 357 357 356 355 355 354 354 356 357 355 354 352 347 346 349 352 356 356
346 349 349 350 351 351 351 350 349 348 348 349 350 350 350 349 350 350 350 351 350 350 350 350 350 350 350 349 350 349 350 350 351 351 350 349 348 347 347 347 346 346 346 343 343 343 343 344 344 344 344 345 345 347 350 353 353 354 354 354 353 354 354 355 354 354 356 356 357 357 357 356 355 355 356 357 355 354 353 350 347 348 349 354 357
344 347 348 349 351 351 351 350 349 348 348 348 349 349 349 349 350 350 350 350 349 350 350 349 349 350 350 349 349 349 349 350 350 350 350 349 348 347 346 346 346 346 345 344 343 343 342 342 341 341 342 343 344 345 346 349 351 352 353 354 354 352 352 354 355 355 356 355 356 357 357 357 356 356 355 356 356 354 354 352 351 352 352 353 355
342 345 347 348 350 351 350 349 349 349 348 348 348 348 349 349 349 350 351 351 350 350 350 349 349 350 350 349 349 349 349 350 350 349 350 349 348 347 346 345 345 345 345 344 343 343 342 341 339 339 339 340 342 344 344 345 347 349 351 354 356 352 351 353 355 356 356 355 355 357 357 357 357 357 357 357 357 356 355 354 354 355 355 353 354
341 343 347 348 350 351 349 349 349 348 348 348 347 348 348 348 349 349 350 351 351 351 351 350 350 350 350 349 349 348 348 349 349 349 349 348 348 346 346 344 344 344 344 344 343 343 343 342 340 339 339 339 340 342 344 344 345 346 347 350 353 352 351 353 354 355 356 355 354 355 356 356 355 357 359 358 357 357 357 357 356 356 356 356 354
341 341 344 348 351 351 349 349 348 348 348 347 347 347 347 347 348 348 349 350 350 350 351 350 350 350 350 349 349 349 348 348 349 349 348 348 347 346 345 344 344 342 342 342 343 342 343 343 341 338 338 339 340 340 343 344 344 345 345 347 349 350 351 353 353 353 355 355 354 354 356 356 355 355 358 357 357 357 357 357 358 358 358 358 356
339 340 341 346 351 352 351 350 348 348 348 347 347 347 347 347 347 348 348 349 349 350 350 350 349 349 349 349 350 350 349 349 349 349 348 348 347 346 345 344 343 342 341 340 341 342 342 342 340 339 339 339 340 340 341 343 344 344 344 345 346 347 349 352 354 354 355 356 356 356 357 358 358 357 358 358 357 357 357 357 358 359 359 359 358
337 338 340 344 347 349 352 354 353 350 348 348 347 347 347 347 347 347 348 348 349 349 350 350 349 349 350 350 350 350 350 349 349 349 348 348 347 347 346 344 344 344 342 339 338 339 340 341 340 340 341 340 340 340 340 342 343 344 344 344 344 344 346 349 353 354 356 356 356 356 357 358 358 358 358 359 359 357 357 357 358 359 358 359 360
335 336 338 341 343 345 348 350 353 354 349 348 348 347 347 347 347 346 347 348 348 349 350 349 349 350 351 351 351 351 351 350 349 349 348 348 347 347 346 345 344 345 344 341 338 338 338 339 339 340 341 340 340 340 340 340 341 343 344 344 344 344 343 345 348 350 352 354 355 356 356 356 357 357 356 358 358 357 356 357 357 358 359 358 359
334 335 335 338 341 344 346 347 349 351 352 351 348 347 347 347 347 346 346 347 348 348 349 349 350 350 350 351 351 351 351 350 350 349 348 348 347 347 347 345 345 345 345 343 342 339 338 336 336 337 338 338 339 340 340 340 341 342 343 344 344 343 342 343 344 347 349 351 353 355 355 355 355 356 355 356 356 355 356 357 357 357 358 358 359
334 334 335 336 338 341 344 345 347 348 350 352 351 349 347 347 347 347 346 347 348 348 349 349 349 350 351 351 351 351 350 350 350 349 349 348 347 347 347 346 345 345 344 345 344 342 340 337 336 336 335 335 337 339 340 340 341 343 343 344 344 344 344 344 343 346 350 352 353 354 355 355 353 352 352 353 353 354 355 356 357 356 357 358 358
332 333 334 335 336 338 341 343 344 346 348 349 351 352 351 349 348 347 346 347 347 348 349 349 349 349 351 351 350 350 350 350 350 350 349 349 348 347 347 346 346 345 345 345 345 344 342 340 339 338 337 337 338 339 340 340 341 342 343 344 343 343 345 347 345 346 349 351 352 354 356 355 353 350 349 350 351 352 354 356 356 355 356 358 359
331 332 333 333 334 336 339 340 342 344 345 346 348 350 352 353 350 348 347 346 347 348 348 349 349 350 350 350 349 350 350 350 350 349 349 349 349 348 347 346 346 345 346 345 345 345 345 343 342 341 339 340 341 340 340 339 340 341 342 343 343 342 344 347 348 349 351 351 351 353 355 355 351 347 347 348 348 348 350 353 355 354 354 357 359
330 330 331 332 333 335 337 338 340 342 343 344 345 347 350 353 353 351 348 346 347 348 348 348 349 349 348 348 348 349 350 350 349 348 348 348 349 349 348 347 346 345 345 345 345 345 346 345 344 343 342 342 341 340 339 337 338 340 341 343 343 341 341 344 348 350 352 353 351 351 352 351 347 344 346 348 348 346 346 348 351 353 353 356 359
328 329 330 330 332 334 336 337 338 339 340 342 343 345 348 351 353 354 352 349 348 348 347 347 348 348 347 347 348 348 348 349 348 348 348 347 348 349 348 347 347 346 346 345 345 345 346 346 346 346 345 345 344 341 340 339 338 339 340 342 343 343 343 345 348 350 351 353 353 352 351 350 346 344 345 347 347 347 347 345 346 348 350 353 357
326 328 329 329 330 332 334 335 337 338 338 338 340 342 345 348 351 353 355 353 350 348 347 347 347 347 347 347 348 348 348 349 348 348 348 347 347 348 348 348 348 348 347 346 346 347 346 346 347 347 347 347 347 344 343 342 341 340 339 342 345 348 350 350 351 351 352 353 354 354 354 354 351 347 346 347 348 348 348 347 346 346 348 349 352
325 326 327 328 329 331 333 334 335 337 337 336 337 339 341 344 348 352 355 355 354 351 348 348 348 348 347 347 348 349 349 349 348 348 348 348 349 349 349 349 349 349 348 348 348 348 347 347 347 348 348 349 349 347 346 344 343 343 341 342 345 350 353 353 353 353 353 354 354 355 356 356 354 349 347 349 351 351 350 349 349 348 349 349 348
324 324 326 328 330 330 331 333 335 336 336 334 334 335 337 340 345 349 354 356 356 355 351 350 350 349 347 348 348 350 350 349 349 349 349 351 350 349 349 350 351 351 350 350 349 349 349 348 348 349 349 349 350 349 348 347 345 345 344 343 344 348 352 354 353 353 353 354 354 354 355 356 354 351 349 349 350 352 353 352 351 350 348 347 347
324 324 325 327 329 330 330 332 334 335 335 333 332 332 334 338 343 347 349 353 356 357 355 353 352 351 350 350 349 350 351 351 351 351 351 352 351 351 351 352 352 353 352 351 350 351 351 350 349 350 350 350 350 350 349 348 348 346 346 345 345 347 350 353 354 354 353 353 354 354 354 355 355 353 351 350 351 353 354 355 355 354 352 350 350
324 324 325 326 328 329 330 331 332 333 333 332 331 331 332 336 341 345 346 348 350 353 356 356 355 354 352 352 351 351 351 351 353 353 354 354 353 352 352 353 354 354 353 353 352 352 352 351 351 351 351 351 351 350 349 349 349 348 347 346 346 347 349 352 354 355 354 352 352 353 354 354 355 354 352 351 351 353 356 358 358 358 357 356 355
324 325 325 325 326 329 330 330 331 331 331 331 330 330 332 335 338 341 343 345 345 346 349 354 357 357 355 354 354 353 353 353 354 355 355 355 355 354 354 354 355 355 354 355 354 354 353 353 353 352 352 352 352 351 351 350 350 349 347 347 347 347 348 351 354 355 355 353 352 352 352 353 354 354 352 351 351 352 355 358 359 359 359 358 357
323 324 324 325 326 328 329 329 330 329 329 330 329 329 332 334 335 337 340 342 341 340 341 347 353 356 358 358 357 356 356 356 356 356 356 356 356 356 355 355 355 355 355 355 355 355 355 354 354 353 353 353 353 352 352 351 351 350 348 348 348 348 349 351 353 355 356 355 353 352 351 352 353 353 352 351 352 352 354 356 358 359 359 358 358
322 322 324 325 326 327 328 328 329 328 328 328 328 329 332 334 334 335 338 338 336 335 336 340 345 349 352 357 358 358 358 358 357 357 356 357 357 357 356 355 355 356 356 356 356 356 356 356 355 355 354 354 354 354 353 352 352 351 350 349 348 349 351 352 354 355 356 356 355 353 352 352 352 352 352 352 352 352 353 355 358 359 359 359 358
321 321 323 324 325 326 327 327 328 328 327 327 328 329 332 333 333 333 335 335 333 332 333 336 339 342 346 351 356 359 359 359 359 359 358 359 359 358 357 357 357 357 357 357 357 357 357 357 356 356 356 355 355 355 354 353 353 352 352 350 349 350 352 353 354 355 356 357 357 355 353 352 351 352 352 352 352 353 353 354 357 359 359 358 357
320 321 322 323 325 326 326 326 327 328 327 327 327 329 331 332 331 332 332 331 331 331 332 334 336 339 342 347 352 357 359 359 359 360 360 360 360 359 359 359 358 358 358 357 357 358 357 357 357 357 357 357 356 356 356 355 354 353 353 352 350 351 352 353 355 355 356 357 357 357 355 353 351 351 351 351 352 353 352 353 355 357 356 354 354
319 320 321 322 323 325 326 326 326 326 326 326 326 328 330 331 331 332 330 329 330 331 332 332 334 337 340 344 348 353 357 358 359 360 360 361 361 360 360 360 359 359 358 358 357 357 357 358 358 358 358 358 357 357 356 356 355 354 354 354 352 352 352 354 355 356 356 356 357 357 356 353 351 351 351 351 352 352 352 353 353 354 353 352 352
318 319 319 321 322 324 325 326 325 325 326 326 326 327 328 330 330 330 329 328 329 331 331 331 333 336 339 343 345 348 352 354 356 358 359 360 360 361 360 360 360 360 359 359 358 358 357 357 358 358 359 359 359 358 357 356 356 355 355 355 354 353 352 353 355 356 356 356 356 357 356 353 352 352 351 351 352 352 352 352 352 351 351 352 352
317 318 318 319 321 323 325 325 325 325 326 326 326 326 327 329 329 328 328 328 329 330 331 331 332 334 337 341 344 346 348 349 350 353 356 358 360 360 360 361 361 360 360 359 359 359 359 358 359 359 360 360 360 359 358 357 356 356 355 355 355 354 353 353 353 355 356 356 357 357 355 353 352 352 352 352 352 352 352 351 351 351 351 352 353
316 317 318 319 320 321 323 324 325 325 326 325 324 325 326 327 327 327 327 327 328 330 330 330 331 334 336 339 342 344 346 347 348 349 351 355 358 359 360 360 361 360 361 361 360 360 360 360 360 361 361 361 361 361 360 359 357 356 356 356 355 355 354 353 353 353 355 356 356 355 354 353 353 353 352 352 352 352 352 352 351 351 352 352 352
315 316 318 318 319 320 321 323 324 325 326 324 323 323 325 326 326 326 326 326 327 329 329 329 331 332 334 337 340 342 345 347 349 351 352 354 357 360 361 361 361 361 361 361 361 361 361 361 361 362 362 362 362 361 361 360 359 357 357 356 355 355 354 354 353 353 353 354 354 354 354 353 353 353 353 353 353 353 352 352 352 352 352 352 352
315 316 317 318 319 319 321 322 324 325 326 324 322 322 323 324 325 325 324 325 326 327 328 328 329 330 332 335 338 341 342 345 348 352 353 354 357 361 362 362 362 362 362 362 362 362 362 362 362 363 363 362 362 362 362 362 360 359 358 357 356 355 355 354 353 353 353 353 353 353 353 353 353 353 353 353 353 353 352 352 352 352 352 352 352
315 315 316 317 318 319 320 322 323 325 325 324 323 321 321 322 323 323 323 323 325 326 327 327 327 329 332 334 336 338 339 341 344 347 350 353 356 360 363 364 364 364 363 363 363 363 363 363 363 363 364 363 363 363 363 362 362 360 359 357 356 356 355 354 354 353 353 353 352 352 353 353 352 352 353 352 352 352 352 352 352 352 352 352 353
315 315 316 317 317 319 320 321 323 324 325 325 323 321 320 320 321 322 322 323 324 325 326 326 327 329 331 332 333 334 336 338 340 343 346 350 352 355 358 361 364 365 364 364 364 364 364 364 364 364 364 364 364 364 363 362 362 361 360 358 357 356 356 355 355 355 354 352 352 352 353 353 353 352 352 353 353 353 353 353 353 353 353 352 353
314 315 316 317 317 319 320 321 322 324 325 325 323 321 320 319 320 320 321 322 323 323 324 326 327 327 329 329 330 331 334 336 338 339 341 344 346 349 351 354 358 362 364 364 365 365 365 364 365 365 365 364 364 364 363 362 361 361 360 359 359 358 358 357 357 356 352 350 350 352 353 354 355 355 354 355 355 356 356 356 355 355 354 354 354
314 315 316 316 317 318 320 321 322 324 325 324 323 321 320 319 319 319 319 320 322 322 323 325 325 326 327 327 327 329 332 334 335 336 338 339 341 346 350 352 354 358 362 363 363 364 364 364 364 364 365 364 363 363 362 362 361 360 360 359 359 359 358 357 357 354 350 348 350 353 354 354 355 355 355 356 356 357 358 358 357 357 356 355 355
Wind_Speed
15 18 19 19 19 18 18 17 17 17 17 18 20 20 20 19 17 16 15 17 20 19 18 15 13 12 11 11 10 10 11 11 10 9 8 7 6 5 4 4 4 5 6 6 5 6 5 4 3 2 2 1 1 2 2 3 2 2 3 4 5 3 2 2 2 2 2 2 3 2 3 3 3 4 3 3 3 3 4 6 5 4 5 6 6
14 17 18 20 19 19 19 17 18 18 18 19 21 21 22 21 19 18 16 17 21 22 21 19 16 14 11 10 10 8 10 11 9 9 8 7 6 5 5 5 5 6 7 7 6 6 5 4 3 3 2 2 1 1 2 2 2 2 2 3 4 4 3 2 2 2 2 3 3 3 2 2 2 2 3 2 2 2 3 3 4 3 3 4 6
14 15 18 20 20 21 20 18 19 20 19 20 21 21 21 22 21 21 18 17 21 23 23 21 19 18 14 11 10 8 10 11 9 9 9 8 7 6 7 7 6 7 7 7 7 7 6 5 4 3 2 2 1 1 2 2 2 2 2 3 3 3 3 3 2 1 1 2 2 2 3 3 3 4 5 3 1 1 2 2 2 2 2 3 5
15 15 17 20 21 21 21 20 20 19 19 19 20 20 20 22 23 25 23 20 22 24 23 22 20 19 16 14 13 10 11 11 11 11 10 9 8 7 9 9 8 8 8 8 8 7 6 5 4 3 3 2 1 1 2 2 2 2 2 3 3 2 3 3 0 1 1 2 2 2 2 1 3 5 6 3 2 2 1 2 3 3 3 4 6
16 16 17 19 21 22 22 21 21 20 19 20 20 21 21 23 26 28 27 25 24 24 23 22 21 19 16 14 13 12 11 11 10 10 10 10 8 8 9 10 9 10 9 9 8 7 6 5 4 4 3 2 2 1 2 2 2 3 2 3 3 3 3 2 2 3 1 1 2 2 1 1 3 6 5 2 3 3 3 4 5 4 5 5 6
16 16 17 19 22 23 23 22 22 21 21 21 22 23 23 25 28 29 28 27 26 25 24 23 22 20 19 17 15 13 11 11 11 10 10 10 9 9 9 9 10 11 10 9 9 7 6 6 5 4 3 2 1 1 2 2 2 3 3 3 2 2 3 2 2 2 1 1 2 2 2 2 3 5 4 2 4 3 4 6 6 7 7 6 6
15 16 17 19 22 23 23 24 23 22 22 22 22 22 23 26 30 30 30 29 27 27 26 24 24 22 22 20 17 16 13 13 15 13 12 11 10 10 10 9 11 11 11 10 9 8 7 6 6 5 4 3 2 1 1 2 2 3 4 4 2 1 2 1 1 1 1 2 3 3 2 3 4 4 3 2 3 3 5 7 7 9 9 6 6
15 16 17 19 23 24 24 25 25 24 23 22 22 22 23 27 31 31 30 30 29 28 27 26 26 26 25 22 19 18 15 14 17 15 13 12 11 11 11 11 11 11 12 11 11 10 8 7 6 6 5 4 3 2 2 3 3 4 5 5 4 3 2 1 1 1 2 1 1 2 2 3 4 3 2 2 2 3 4 6 8 10 8 6 6
16 17 18 20 24 26 26 26 26 26 24 23 23 23 25 27 31 31 31 31 30 30 29 28 28 28 27 23 21 20 18 16 17 15 14 14 12 12 12 12 12 11 12 11 11 11 10 9 7 6 6 5 4 3 4 4 4 4 5 5 6 5 4 2 1 2 2 2 1 1 1 2 2 1 1 1 1 2 3 5 9 10 8 7 8
17 17 18 22 25 26 27 27 27 27 25 25 25 25 25 26 29 31 32 31 31 31 30 30 30 29 28 26 23 22 21 19 17 15 15 15 14 13 13 13 13 12 12 11 12 11 10 10 9 8 7 6 5 5 5 5 5 5 5 6 6 6 6 4 3 2 2 2 1 1 1 1 1 0 1 1 1 1 3 4 7 8 7 7 9
15 17 18 22 25 25 26 26 27 27 25 25 26 25 24 25 27 31 32 32 31 31 32 31 31 31 30 30 26 24 23 21 19 17 17 16 15 15 14 14 13 13 12 11 12 11 10 10 10 9 8 7 7 6 5 5 5 5 5 6 6 6 6 5 4 3 2 2 2 1 1 0 0 0 1 2 3 2 3 4 5 6 6 6 9
14 14 16 18 20 22 25 25 26 26 25 25 25 24 24 24 27 29 30 32 32 31 32 32 32 32 32 32 29 26 25 24 22 21 19 18 17 16 16 15 15 14 13 13 13 12 10 10 9 9 9 9 8 7 6 5 5 5 5 6 6 6 6 5 5 4 3 2 2 1 1 1 1 1 1 1 2 3 4 4 4 5 4 5 8
15 14 14 14 16 19 23 25 25 25 25 26 26 25 24 25 28 28 29 32 33 32 32 33 34 34 34 34 32 29 27 26 25 24 22 21 19 18 17 17 16 16 15 14 13 12 12 11 10 9 9 9 9 8 7 6 6 5 6 5 5 5 5 5 5 5 5 4 3 2 2 2 2 2 2 2 2 2 3 4 4 4 3 4 7
15 14 15 14 15 19 23 24 25 25 27 28 27 26 25 26 29 30 30 32 33 32 33 33 35 36 36 36 34 31 29 28 27 26 24 23 22 21 20 18 17 16 16 15 13 12 12 12 12 11 10 10 10 10 8 8 7 6 6 5 5 5 5 5 6 6 6 6 5 4 3 3 3 2 2 2 2 2 4 4 3 3 3 3 5
14 14 15 16 18 22 23 23 24 26 28 29 28 27 27 27 31 33 31 32 33 33 33 34 35 36 36 36 35 34 32 30 29 28 26 25 24 23 22 21 19 17 16 15 13 13 12 11 12 12 13 12 11 11 10 9 8 8 7 7 6 6 5 5 6 6 6 6 6 6 5 4 3 2 2 2 1 3 5 4 1 2 2 3 3
13 15 16 17 20 23 23 23 25 26 28 29 28 28 28 28 32 36 34 34 35 34 34 34 35 35 36 36 36 35 34 32 31 30 28 27 26 25 24 23 21 18 16 15 14 14 13 12 12 12 12 13 13 12 11 10 10 9 9 9 8 7 6 5 6 6 6 6 7 7 7 6 4 3 2 1 1 2 5 3 1 1 2 3 3
9 12 16 17 20 23 24 24 25 26 28 29 29 30 32 33 33 35 34 33 35 36 36 35 35 34 36 36 36 36 35 34 33 31 29 28 28 26 25 25 24 21 18 16 15 15 14 13 12 12 12 12 13 13 12 12 11 10 10 10 10 9 7 6 6 6 6 6 6 7 7 7 6 5 3 1 1 2 4 2 1 1 1 3 3
11 11 13 16 19 22 25 26 27 29 29 30 31 32 35 37 36 36 35 33 35 36 34 34 35 34 34 36 37 37 36 35 34 33 31 29 28 27 26 26 26 24 21 18 17 16 16 15 14 13 12 12 12 13 13 13 12 11 11 11 11 11 10 8 7 7 7 7 7 7 7 7 7 6 5 3 2 3 3 1 0 0 1 2 2
12 11 10 13 17 21 24 25 26 28 28 29 30 31 32 34 34 35 36 36 37 36 34 36 36 34 33 35 37 37 37 36 34 34 32 30 29 29 28 28 27 26 24 21 19 18 18 17 15 14 14 13 13 13 13 13 13 13 12 11 12 13 12 10 9 8 8 8 8 7 7 7 7 7 6 6 5 4 3 2 2 2 3 3 3
12 11 10 11 15 20 23 24 25 26 26 27 28 29 29 31 31 31 31 32 34 33 35 38 37 34 33 35 37 37 37 36 35 34 33 32 31 30 29 28 28 27 26 24 22 21 20 19 18 17 16 15 14 14 14 14 14 14 14 12 11 13 14 13 11 9 9 9 9 8 8 7 7 8 7 7 6 5 5 5 5 5 5 5 5
13 13 9 8 14 18 19 21 23 24 24 26 27 29 29 28 29 30 29 29 31 31 32 35 34 33 34 36 36 37 37 36 35 34 34 33 33 32 30 30 29 28 27 27 25 24 23 22 21 20 19 17 16 15 15 15 16 15 15 14 14 14 14 14 14 12 11 10 10 10 10 9 9 8 8 7 7 7 7 7 7 7 6 7 6
16 15 13 7 6 14 19 20 20 20 22 25 26 27 28 29 28 29 29 29 31 30 30 33 34 33 35 35 33 34 36 35 33 32 33 34 34 33 32 31 30 29 28 28 28 27 25 24 23 22 21 20 18 17 16 17 17 16 16 16 16 16 15 15 15 15 13 12 12 12 12 11 11 10 9 9 8 8 8 8 8 7 7 7 8
17 16 15 15 12 5 8 16 21 21 21 24 26 25 27 29 29 29 29 29 30 29 29 34 37 37 37 35 32 31 33 33 30 29 31 32 32 34 34 32 32 31 30 30 29 29 28 26 24 23 22 22 21 20 19 18 19 18 18 17 17 17 16 16 16 16 15 13 13 13 12 11 11 12 11 10 9 9 9 9 9 9 8 8 8
18 17 16 18 21 21 14 6 8 16 20 21 22 24 25 26 27 28 29 29 29 27 27 32 36 35 33 32 31 30 29 29 28 28 30 30 29 31 34 34 32 30 31 31 30 30 30 28 26 25 24 24 24 23 22 21 21 20 20 20 18 18 18 17 17 16 15 14 14 14 13 12 12 13 13 12 12 11 11 10 10 11 11 11 10
18 18 18 19 20 20 20 20 14 3 12 20 21 21 23 25 26 27 28 28 28 26 26 29 32 31 28 28 30 28 26 27 29 28 29 29 27 26 30 34 33 30 31 32 32 32 31 30 29 28 28 27 26 26 25 25 24 23 22 22 21 20 20 19 19 18 17 17 16 16 15 14 14 15 15 14 13 13 13 12 11 11 12 11 11
17 18 17 17 18 20 22 22 21 18 8 9 17 22 23 23 25 26 26 26 27 26 25 26 28 28 27 28 29 28 27 28 29 29 28 28 27 25 27 31 33 31 31 32 32 33 33 33 33 32 31 30 29 28 28 28 26 25 25 24 23 23 22 22 22 21 20 19 19 18 17 17 17 17 17 16 15 15 14 13 12 12 11 11 11
14 15 16 16 16 19 23 23 21 22 20 12 3 14 20 22 24 25 25 26 25 25 25 25 27 27 27 28 30 30 29 28 29 30 28 26 26 26 26 29 32 31 31 30 30 33 35 35 35 35 34 34 33 31 31 30 29 27 27 26 25 24 24 24 24 23 21 20 20 20 19 19 20 20 19 18 17 16 15 13 13 13 11 11 11
15 15 15 16 16 16 20 24 23 22 22 20 17 8 5 14 22 25 25 25 26 26 26 26 27 26 26 31 33 31 29 29 29 30 30 27 26 27 27 29 30 30 30 30 29 31 33 35 35 35 36 35 35 34 32 31 31 30 29 28 27 27 25 25 26 25 23 22 21 20 20 20 22 22 21 19 18 17 15 14 14 14 12 11 11
16 15 14 14 13 14 17 21 23 24 23 21 20 18 14 6 10 20 24 25 24 26 28 27 26 27 30 34 34 30 28 29 29 31 33 31 27 27 29 30 31 31 30 29 28 28 29 32 34 35 36 35 35 34 34 33 32 32 31 30 29 29 27 26 26 25 23 23 24 22 20 21 24 24 22 20 19 18 17 16 15 15 14 13 12
15 14 13 12 12 13 16 18 20 23 24 22 20 19 17 15 9 8 18 23 23 25 30 29 27 32 37 37 35 33 31 30 32 34 36 34 31 28 29 30 32 33 31 30 30 28 27 29 31 33 34 35 35 36 36 35 34 33 32 31 30 31 30 28 27 26 23 23 24 24 23 24 25 25 23 22 21 20 19 18 17 16 16 15 13
15 14 13 12 13 14 15 17 19 20 21 21 21 20 17 16 15 11 8 15 21 26 31 32 31 36 39 36 35 36 35 33 36 36 36 36 34 31 30 32 32 32 32 33 32 30 28 27 27 29 31 32 34 37 37 36 35 34 33 32 31 31 31 30 28 27 25 23 23 24 25 26 26 26 24 24 23 21 20 20 19 19 19 18 16
15 15 14 13 13 14 15 16 17 19 19 19 20 20 19 19 18 15 11 9 15 22 29 33 34 36 37 35 35 34 34 35 36 36 36 36 35 32 32 32 31 31 32 32 30 30 31 29 26 26 28 29 32 36 37 36 35 35 33 32 30 27 26 27 27 27 26 24 23 22 23 23 24 25 25 24 23 22 21 20 20 20 20 20 19
14 14 14 14 14 15 17 17 17 17 18 18 19 18 18 20 19 17 14 11 11 16 25 30 31 32 35 36 35 33 33 35 36 36 36 35 34 34 34 33 32 31 31 30 30 30 31 31 28 27 28 28 29 33 36 36 35 34 33 33 31 27 24 24 25 26 26 24 24 23 22 22 24 26 25 24 23 23 22 20 20 19 19 20 20
13 13 13 15 17 18 18 18 17 18 17 18 20 20 20 20 19 18 16 14 11 12 19 25 27 31 34 34 33 33 33 34 36 36 35 33 34 36 37 35 31 29 29 31 31 29 30 32 32 30 30 29 28 31 35 36 35 34 33 33 32 30 25 24 25 26 25 25 25 26 25 24 26 28 27 25 24 23 21 20 20 19 20 20 19
13 13 14 16 19 20 21 20 19 18 18 18 21 24 25 23 19 18 19 17 14 10 12 19 23 26 29 30 31 32 33 33 34 34 33 33 34 35 35 33 29 28 30 34 34 31 30 33 34 32 31 30 30 32 35 35 35 35 33 33 33 32 29 25 25 27 28 28 27 27 28 27 27 28 28 26 24 22 20 19 18 18 18 19 20
13 14 16 17 19 20 21 21 20 19 19 19 20 23 26 24 18 16 18 18 17 14 9 10 15 20 23 26 28 31 32 32 31 30 30 31 32 35 35 33 28 26 27 30 32 32 32 34 34 33 31 30 31 33 35 36 36 35 33 33 33 34 33 29 26 27 29 31 31 30 30 29 29 29 30 28 25 23 19 17 17 17 17 18 19
14 15 16 17 17 18 19 20 19 19 19 19 21 23 24 22 19 18 18 17 17 18 16 10 6 12 17 21 24 26 29 30 28 27 28 30 32 34 34 32 29 26 25 25 27 29 30 31 32 32 32 32 32 34 36 36 36 34 33 33 34 35 35 32 29 28 29 32 33 33 32 31 31 31 30 29 27 24 21 18 17 17 17 17 18
16 16 16 17 17 17 18 19 18 19 19 19 21 21 20 18 18 19 19 16 17 20 18 13 8 4 7 13 19 22 24 25 26 26 28 30 31 31 32 33 31 29 27 26 25 26 27 28 29 30 32 32 32 33 36 37 36 35 34 34 35 35 34 33 31 29 29 31 34 34 34 33 32 32 31 30 27 26 24 22 19 18 18 18 19
15 16 16 17 17 17 17 17 18 19 19 20 21 19 16 14 15 16 16 16 18 21 19 16 13 8 6 9 14 19 22 22 24 26 28 28 28 29 32 34 33 30 28 26 24 24 25 26 28 29 31 32 30 30 33 35 35 35 34 35 36 35 33 31 30 29 29 30 33 35 35 35 34 33 32 30 29 28 27 25 21 19 19 20 20
15 16 17 17 16 16 17 17 18 19 19 19 19 17 14 13 14 14 14 14 17 20 19 18 17 13 10 11 13 16 20 22 23 24 25 24 26 27 28 29 29 28 27 26 25 24 24 25 26 26 28 31 30 29 30 33 34 34 34 35 36 35 33 31 30 29 27 27 30 33 35 36 35 34 32 31 31 30 29 28 24 20 21 23 22
16 16 16 16 16 15 16 16 17 18 18 18 18 16 14 13 12 12 14 14 16 19 20 19 19 18 15 14 12 11 14 18 21 22 22 23 24 24 23 25 27 26 25 26 27 25 25 25 25 25 26 28 29 29 30 32 34 34 34 35 37 38 37 32 29 29 28 27 26 29 33 36 36 34 33 32 32 32 31 31 28 26 27 27 25
18 17 16 16 16 16 17 16 16 17 17 16 16 16 15 14 12 13 15 17 16 18 20 21 20 19 18 15 13 11 11 13 16 19 22 24 24 24 23 25 26 25 24 26 27 27 26 25 25 25 25 26 28 30 30 31 33 34 34 35 38 40 38 33 29 28 29 29 27 28 33 36 36 34 32 32 32 32 32 32 32 31 30 29 27
18 18 17 17 16 16 16 16 16 16 16 15 16 16 16 15 13 13 14 16 18 19 19 20 20 19 17 16 15 15 14 13 14 15 19 24 25 26 26 25 25 25 25 26 27 26 26 26 25 25 26 26 28 30 31 32 33 34 35 36 38 39 39 36 31 30 30 31 29 30 34 36 35 34 33 32 31 31 32 32 31 30 29 29 28
19 19 18 18 17 16 16 17 17 15 14 14 14 15 15 15 14 13 12 14 18 19 19 18 19 19 18 16 15 16 17 18 17 14 16 21 26 28 29 27 27 27 27 28 28 27 26 27 27 26 27 27 27 29 31 33 34 34 35 36 37 38 38 39 37 33 30 29 29 31 35 36 34 34 34 32 31 31 31 31 29 27 28 28 29
21 20 17 17 18 18 17 17 17 15 14 14 14 14 15 15 15 13 12 12 15 17 18 18 19 19 19 18 18 17 18 19 19 15 14 19 26 30 30 29 29 30 29 28 28 28 27 27 27 27 27 27 25 24 27 31 34 35 35 36 37 38 38 40 41 39 34 30 30 32 35 36 35 34 33 33 32 32 31 30 28 27 27 29 30
21 21 18 17 18 19 18 17 17 15 13 15 16 15 14 15 15 14 12 12 12 14 16 18 20 19 19 19 19 19 18 17 17 14 14 19 26 30 30 28 28 29 30 29 28 28 27 27 27 28 27 26 22 21 22 25 29 32 35 36 37 38 38 39 41 41 39 36 35 34 35 35 36 36 34 34 33 33 31 30 29 28 29 30 30
20 21 21 18 18 18 18 18 17 14 12 15 17 16 14 14 14 13 14 13 13 13 14 17 19 20 20 20 19 19 19 18 16 13 13 17 23 27 29 28 27 28 29 28 28 27 27 27 28 28 27 25 22 22 23 22 23 27 33 36 37 38 38 39 41 43 43 41 38 38 38 38 36 35 35 35 34 32 31 30 30 30 30 30 30
19 21 21 20 18 18 18 18 17 15 13 14 16 16 15 14 13 13 14 15 13 12 13 15 17 18 18 19 20 20 20 20 18 15 14 15 17 20 23 26 28 29 29 28 28 27 28 29 29 26 24 24 24 24 24 22 22 25 30 34 37 40 40 40 42 43 43 42 41 38 37 37 37 34 33 33 32 30 30 30 30 31 31 31 30
20 21 21 21 20 20 19 18 18 15 13 13 15 16 15 14 13 12 13 14 14 13 13 14 15 15 15 17 20 21 20 20 19 18 17 16 15 16 18 22 26 29 30 30 29 27 26 28 28 25 22 21 22 24 27 28 28 28 29 30 33 38 40 40 41 41 40 41 41 37 31 29 29 29 27 26 25 24 24 25 27 28 28 28 28
21 21 21 22 22 21 20 19 18 16 13 13 14 16 15 13 13 12 12 13 15 15 14 15 14 13 13 15 19 21 21 20 20 20 19 19 19 19 19 20 23 26 30 32 32 31 28 25 25 24 22 22 23 24 26 28 29 31 32 31 32 35 36 36 37 37 35 33 32 31 28 25 23 23 24 23 22 20 20 21 23 25 25 25 25
22 22 22 23 23 22 21 20 18 16 14 13 14 15 14 12 11 11 11 13 14 14 14 15 15 15 14 15 18 21 22 21 21 20 19 20 21 23 24 22 20 20 24 29 34 36 35 32 31 29 25 24 26 28 27 26 27 29 31 32 33 33 33 34 33 32 32 31 27 25 25 24 23 23 23 23 22 21 20 20 21 23 24 25 25
Wind_Direction
193 192 192 191 192 192 193 194 194 193 189 187 188 193 196 194 194 195 195 202 206 206 204 200 194 194 197 201 205 211 218 225 232 236 243 255 265 270 262 247 228 209 200 197 191 188 180 174 179 186 191 162 115 75 83 102 111 109 113 114 105 90 68 48 25 5 349 349 353 355 351 340 335 342 344 343 346 346 353 3 6 0 2 2 356
190 190 191 191 192 192 193 193 193 193 190 190 191 193 197 198 197 196 195 201 207 208 207 205 202 199 197 199 200 202 215 222 230 237 242 254 262 256 242 230 218 207 200 198 195 192 184 178 190 197 193 170 129 99 99 106 111 110 104 98 91 83 62 20 351 351 0 4 352 352 19 44 58 24 6 359 354 0 357 354 358 359 351 348 349
191 191 191 192 193 192 193 193 195 196 193 194 194 192 194 196 197 199 197 199 207 211 211 211 211 209 205 206 204 203 216 221 230 238 244 255 258 243 229 219 210 205 201 201 197 195 191 187 197 201 197 191 133 92 108 114 112 111 107 90 79 71 48 4 319 296 12 8 344 357 28 54 86 50 14 14 11 0 5 351 342 338 322 329 339
193 194 193 193 194 193 194 194 196 197 196 195 194 192 194 196 200 204 204 205 209 213 213 214 216 214 214 217 216 216 223 228 237 244 247 252 251 235 221 212 207 206 204 202 199 196 193 192 197 197 195 196 191 108 113 125 128 124 112 92 78 72 55 23 83 163 29 6 355 13 14 36 82 30 6 25 20 358 11 351 339 323 320 337 341
195 196 195 194 193 194 195 195 194 196 196 195 194 195 197 199 204 208 209 210 212 214 214 215 216 214 212 214 217 220 224 228 232 236 241 244 242 229 217 211 208 208 207 205 201 197 193 196 200 197 194 192 192 168 136 144 150 145 133 110 84 75 68 58 121 133 64 357 347 3 11 49 52 7 357 29 10 20 37 2 353 338 325 336 341
197 198 197 195 194 194 195 195 195 197 198 197 196 198 200 203 207 209 210 211 212 214 214 214 214 211 208 204 203 207 209 214 216 217 226 232 232 226 216 211 211 211 211 207 203 201 198 201 208 207 203 201 203 186 160 160 163 163 158 144 116 86 77 74 129 131 20 310 282 300 349 4 0 349 350 356 350 11 19 9 10 1 351 352 352
197 199 198 197 195 194 194 194 196 199 199 199 198 200 201 204 209 209 210 210 210 212 213 213 212 212 212 208 204 203 200 209 218 220 224 228 230 227 220 214 214 215 215 214 210 210 208 208 213 216 216 218 217 197 187 184 176 183 183 176 180 149 99 78 145 177 272 285 273 265 283 310 323 331 329 336 346 351 2 13 17 7 8 10 5
197 198 198 198 197 196 195 195 198 201 200 198 198 199 200 206 211 210 210 210 209 211 212 212 212 213 215 213 213 212 207 212 220 222 225 230 233 230 225 221 219 218 219 220 218 218 219 215 214 217 220 223 220 212 209 205 194 195 195 194 203 204 177 152 186 223 242 246 308 286 280 304 317 330 316 317 334 331 354 16 10 6 18 26 18
199 199 198 198 197 197 197 195 197 200 199 197 198 200 201 206 211 211 211 210 210 211 211 212 214 215 215 215 218 219 216 217 221 224 227 230 234 234 230 227 225 223 222 223 222 223 223 220 216 215 218 223 223 225 219 209 204 203 204 206 211 212 211 216 218 236 246 234 293 316 312 317 321 0 1 301 330 337 353 6 2 3 21 32 23
203 202 200 199 198 197 197 195 196 198 198 197 199 201 201 203 206 209 211 211 211 211 211 212 214 214 216 217 219 220 220 220 221 225 228 231 235 236 234 231 229 229 227 225 224 223 221 220 220 216 216 221 221 226 220 211 210 210 212 214 214 214 215 220 222 223 239 237 252 284 304 326 328 69 32 351 358 345 330 348 1 2 10 20 14
205 205 204 200 198 197 197 196 197 196 196 196 198 199 199 199 202 206 210 210 211 211 211 211 212 214 216 218 219 220 220 220 219 221 225 228 231 234 235 233 231 232 231 231 229 226 219 218 220 220 220 221 220 224 222 214 214 215 218 220 217 217 218 224 227 224 225 232 258 276 263 280 309 327 354 0 356 346 330 338 359 359 354 5 7
208 208 206 201 196 193 195 196 195 194 193 195 196 198 198 197 200 202 206 209 210 210 211 211 211 213 216 218 219 220 221 221 220 221 223 225 227 232 236 235 235 236 234 234 233 229 223 218 219 221 221 221 222 225 223 217 216 218 221 222 222 224 226 232 232 229 226 228 249 256 230 233 251 298 314 333 340 344 332 326 345 350 342 356 4
209 208 204 203 196 191 192 193 191 190 191 193 196 198 197 198 201 200 203 208 209 209 210 210 211 213 215 217 218 220 222 223 224 225 227 227 229 232 236 237 238 239 238 238 236 234 231 227 224 222 221 220 220 224 225 221 218 221 225 226 227 229 233 242 240 232 226 226 234 236 228 239 254 283 292 291 305 329 325 320 336 333 323 353 3
209 207 202 203 200 194 193 191 189 190 192 194 195 196 195 197 201 202 204 208 209 209 210 211 213 215 216 217 218 220 221 223 225 227 229 230 231 233 237 239 241 242 244 244 243 241 237 236 234 232 230 226 221 223 227 227 223 224 228 229 231 234 239 249 248 237 228 228 233 238 240 247 263 273 268 277 296 330 335 324 324 309 302 352 6
212 210 206 205 201 197 194 191 190 192 193 195 194 193 194 196 201 203 204 206 208 208 209 211 213 215 216 217 218 220 221 223 225 227 230 232 233 234 237 240 242 245 247 249 250 247 243 241 239 237 236 232 225 224 228 231 228 229 232 232 234 242 249 252 250 240 231 233 235 240 245 248 258 259 252 276 309 347 347 334 301 307 326 8 10
221 213 209 208 202 198 195 192 192 192 193 194 194 192 193 196 202 206 206 207 209 209 210 212 214 215 216 217 218 220 221 223 225 228 231 233 234 235 238 240 242 245 249 251 251 249 246 242 240 238 237 232 226 224 228 232 232 234 237 237 239 248 257 257 251 242 236 236 237 240 245 245 245 245 248 292 349 359 359 6 173 267 343 1 2
270 236 217 209 202 199 197 195 193 193 193 194 192 192 194 197 201 204 206 206 208 210 211 212 213 214 216 217 218 220 221 223 225 227 229 230 232 234 238 241 242 244 248 249 249 247 245 243 242 241 239 235 231 228 228 230 233 238 239 240 244 249 258 260 250 244 238 235 236 238 241 240 238 239 240 258 329 349 358 16 127 148 352 347 347
322 290 240 215 204 201 199 198 197 195 195 195 194 194 197 200 201 202 202 203 207 209 210 211 212 213 215 217 218 219 221 222 224 226 228 229 230 232 235 239 241 242 244 246 248 248 246 244 244 244 244 242 239 235 232 231 233 238 240 243 246 247 253 256 252 252 246 239 238 237 238 236 232 234 235 238 272 321 334 318 221 169 326 314 318
339 320 272 229 211 205 201 200 201 197 194 195 195 195 197 199 200 202 203 204 207 208 208 212 214 212 214 217 218 220 221 221 223 225 227 228 230 231 233 236 239 240 242 245 247 249 249 247 247 249 250 248 245 242 239 236 234 238 241 243 245 246 248 250 252 258 255 247 241 235 236 237 234 235 236 237 250 276 292 272 252 263 272 267 274
344 330 294 244 221 212 206 203 202 199 195 195 195 195 198 199 199 201 201 203 205 205 207 212 212 211 213 217 218 219 221 221 223 225 226 228 230 232 234 236 238 240 242 244 247 249 250 250 251 252 254 253 250 246 244 242 239 241 243 242 243 246 246 245 248 255 259 257 249 240 240 243 243 246 246 246 248 253 258 255 249 253 260 260 258
356 347 325 253 221 212 209 208 205 200 195 194 195 197 198 199 199 200 199 199 201 202 205 209 209 209 213 216 218 219 221 221 223 224 226 227 230 232 234 236 238 240 242 244 246 248 250 251 253 254 255 255 253 250 248 247 246 246 247 246 247 249 247 245 247 251 258 263 259 253 253 255 257 256 254 254 255 252 251 249 247 246 249 255 255
9 4 3 345 238 212 209 207 204 201 196 194 196 196 197 199 199 200 200 201 202 201 203 208 209 209 213 216 216 218 220 220 220 222 224 226 229 232 234 235 237 239 242 243 245 247 250 252 253 254 255 255 255 254 252 251 250 251 251 251 251 252 251 248 249 251 254 258 262 262 261 262 265 265 264 262 259 256 254 251 249 246 245 252 258
18 16 17 16 12 347 226 209 201 199 198 197 197 196 197 199 199 199 202 203 204 202 203 208 211 212 214 215 213 214 217 217 215 218 221 223 227 231 233 234 235 237 240 242 243 245 248 250 252 253 254 255 255 255 254 253 253 253 253 253 254 255 255 252 251 252 252 252 256 259 258 257 261 265 266 264 260 259 257 256 254 251 252 255 261
23 23 22 24 24 22 9 331 222 201 196 196 196 197 198 199 198 200 203 204 203 201 202 207 211 212 211 211 211 212 212 212 212 216 220 220 222 227 232 233 233 234 237 241 242 243 245 247 249 250 253 255 255 255 255 255 255 255 254 254 255 257 258 256 254 253 251 250 251 254 255 254 256 262 264 262 261 261 260 259 256 253 256 257 257
26 24 23 25 27 26 18 8 1 316 208 199 194 195 198 199 199 202 204 204 203 201 202 205 208 208 206 208 210 210 208 209 211 214 218 219 218 221 228 233 231 230 234 238 240 240 241 243 244 247 250 252 254 254 255 255 256 257 256 255 256 258 259 259 259 258 256 255 254 253 254 255 255 259 261 259 257 259 259 257 255 253 255 257 256
27 25 22 23 25 26 23 17 14 9 341 225 200 197 200 200 201 203 204 203 203 202 202 203 204 204 205 207 208 208 208 210 211 214 216 217 216 217 223 230 231 230 231 235 237 238 239 240 241 244 247 250 252 253 254 255 256 257 257 256 256 258 261 261 260 260 259 258 258 256 256 257 256 255 256 256 257 258 258 254 254 255 256 257 257
27 26 22 19 19 22 22 20 18 16 10 0 273 210 207 202 200 202 203 202 200 200 200 201 203 204 205 206 208 209 210 210 212 215 215 214 216 216 218 226 230 230 230 231 233 236 238 239 241 242 245 247 249 251 252 254 254 254 256 256 255 256 259 260 260 259 257 257 257 256 256 257 259 259 257 256 256 258 257 253 254 257 256 254 255
24 23 20 17 14 14 16 17 18 17 14 12 10 355 251 213 204 202 202 201 199 198 199 201 203 204 206 210 212 211 211 212 213 216 216 214 214 216 219 224 227 228 228 229 230 233 237 239 240 242 244 246 247 248 249 251 252 252 253 254 255 255 255 256 258 259 256 256 255 254 252 254 258 261 260 258 256 255 255 254 256 258 256 253 254
18 16 12 12 13 11 9 12 16 16 14 11 10 8 3 332 229 211 206 205 200 196 199 202 202 205 211 215 215 212 212 213 214 218 220 218 216 217 220 223 226 228 228 228 229 230 234 237 239 241 243 244 245 246 247 248 249 250 250 251 252 255 254 253 254 255 254 255 256 254 251 251 256 259 261 261 260 257 256 255 256 260 259 255 252
12 9 4 3 7 7 5 7 12 14 13 9 5 2 2 1 339 249 219 212 202 198 203 203 203 210 216 218 217 216 215 214 216 221 223 223 220 219 220 223 227 229 229 229 230 229 230 234 237 239 241 242 242 245 247 249 248 248 249 249 250 253 254 252 251 252 251 251 254 255 254 254 258 261 261 261 261 260 259 257 256 258 259 255 249
7 3 358 356 358 360 1 5 7 8 7 5 3 358 356 359 357 338 271 226 211 206 207 207 209 215 218 217 216 218 218 218 221 222 223 224 222 221 223 225 227 228 229 229 229 229 229 230 232 235 238 239 241 245 248 249 249 248 247 246 248 251 252 251 250 250 249 249 250 254 256 258 260 261 260 259 260 260 260 260 260 260 259 256 250
1 359 356 354 353 353 356 359 0 1 359 358 358 354 353 354 350 344 330 276 232 215 210 211 214 216 216 215 215 216 217 219 221 222 222 223 222 221 224 226 225 226 228 227 226 227 229 230 229 231 234 235 239 245 249 250 249 249 247 245 244 245 246 247 247 246 248 248 246 248 251 253 256 259 260 260 261 262 263 262 262 262 262 260 256
356 354 353 352 350 347 347 349 352 353 351 353 355 351 348 347 342 339 337 316 274 233 215 213 216 216 216 215 215 214 215 218 220 221 221 221 220 221 223 224 224 224 225 225 224 225 229 230 228 229 233 234 237 244 249 250 249 249 247 244 241 240 240 242 243 245 245 245 245 246 246 246 251 257 259 259 259 262 264 265 264 262 260 260 259
355 352 351 350 347 344 342 342 347 347 343 348 356 354 351 349 343 341 344 337 314 266 228 217 216 217 217 216 215 214 215 218 220 220 220 218 218 222 223 223 222 220 221 224 225 223 226 229 229 230 233 235 237 242 247 250 250 248 247 245 241 240 240 241 242 244 244 243 244 246 246 247 251 256 258 258 257 258 261 263 263 261 259 260 262
353 350 348 346 346 345 341 338 341 342 339 344 354 357 358 358 352 347 352 354 347 316 251 227 219 218 217 216 216 216 216 218 219 218 218 218 219 222 223 221 219 217 220 225 225 222 223 228 230 229 231 234 237 241 245 248 250 249 246 245 242 240 239 241 242 244 245 246 246 246 248 249 250 253 256 257 257 255 254 255 256 255 257 259 261
348 346 344 343 343 343 339 334 334 338 339 340 347 355 2 3 358 352 355 359 1 357 326 260 230 220 218 217 217 217 218 219 218 216 216 217 219 222 224 222 220 221 223 225 224 222 221 225 227 226 226 231 236 239 242 246 249 249 246 243 242 241 240 239 241 243 245 248 248 247 249 250 251 253 256 258 257 253 248 245 246 246 248 251 255
341 341 341 340 339 339 337 333 331 336 340 339 342 352 2 4 358 357 358 357 359 1 355 334 266 227 223 222 219 219 219 218 215 213 215 217 220 222 223 222 221 222 225 225 224 224 224 225 226 224 223 226 231 235 239 243 247 247 243 240 239 240 240 239 240 242 244 247 249 249 249 250 251 252 255 258 258 253 245 240 241 243 244 246 250
337 337 338 340 340 337 336 335 333 335 339 340 340 348 359 1 356 356 357 357 358 356 350 344 338 294 245 234 227 223 222 220 216 215 217 219 221 222 222 223 222 222 224 226 227 228 229 229 228 227 226 228 230 233 236 240 243 244 241 238 238 238 238 238 239 240 241 245 248 250 249 249 250 252 255 257 256 252 246 239 238 240 243 246 249
335 334 334 336 335 334 334 336 336 338 339 340 341 343 349 355 355 354 355 355 353 346 338 336 338 328 290 267 250 234 227 224 221 221 222 222 221 223 225 226 225 224 225 227 228 229 230 231 232 232 232 232 233 234 235 237 240 240 238 237 237 235 234 235 237 238 239 242 246 249 250 249 250 252 254 255 254 251 246 240 236 237 240 244 247
331 333 332 330 330 333 336 337 337 338 338 340 342 340 341 349 354 354 353 348 339 333 332 336 336 324 299 289 278 252 236 231 228 226 226 225 225 226 225 224 224 225 226 227 228 230 232 234 235 235 235 234 234 234 234 236 237 237 236 235 233 231 231 232 234 235 236 238 242 246 249 251 251 251 253 253 252 250 248 243 236 232 238 245 249
324 328 329 327 327 330 332 333 334 336 338 339 341 339 338 344 351 351 345 337 331 332 336 338 337 328 313 302 291 269 250 243 239 236 233 231 230 228 225 223 224 225 225 226 228 230 233 236 237 236 236 236 235 234 233 234 236 236 235 233 231 231 231 231 231 233 235 237 239 241 245 250 251 252 252 252 251 250 250 247 240 237 245 252 255
319 323 326 326 326 325 325 328 332 336 338 338 338 337 334 336 347 349 339 332 333 338 339 336 334 330 321 308 291 273 254 244 244 244 241 238 234 230 227 225 225 225 224 225 227 228 231 237 238 237 237 236 236 236 233 233 235 236 236 234 232 232 232 230 229 232 235 237 238 239 244 249 252 253 253 252 251 251 250 249 248 249 254 258 260
311 315 320 322 321 319 319 322 327 333 336 336 336 335 332 332 338 343 339 332 332 337 338 334 331 329 324 314 297 281 266 251 246 247 248 247 242 235 230 227 225 226 226 228 229 229 230 235 238 239 239 236 234 236 235 234 236 237 237 238 237 235 233 230 229 232 235 237 237 240 245 250 253 255 255 255 254 251 249 251 253 255 258 259 259
304 306 312 316 315 314 315 316 320 325 330 333 334 331 328 327 327 334 341 336 329 333 337 333 328 327 324 318 307 294 282 270 262 259 258 257 250 242 237 234 230 230 232 233 234 232 231 234 237 239 240 236 231 233 236 238 238 238 239 240 239 238 235 233 232 233 235 236 237 241 247 252 255 256 256 256 256 254 252 252 255 257 258 257 254
298 300 304 307 307 308 310 311 314 318 322 328 332 327 322 321 321 327 339 339 330 331 334 330 328 327 323 319 312 303 293 281 271 265 264 265 259 249 242 238 234 232 233 234 234 233 231 233 236 237 239 237 230 229 234 238 240 240 240 241 241 239 237 235 234 235 236 237 239 244 249 254 257 258 258 256 256 255 254 254 256 256 255 252 249
293 295 298 301 302 303 304 306 308 310 313 320 327 325 316 316 322 327 333 336 334 332 330 327 325 323 321 317 312 306 299 290 278 267 260 263 261 252 244 239 235 232 232 232 233 234 234 234 234 235 236 236 233 232 232 234 238 240 241 241 241 241 239 238 237 238 239 240 243 246 250 253 256 257 257 255 255 255 256 256 255 252 250 248 246
288 291 295 298 296 295 297 299 301 302 304 310 318 322 317 315 320 323 327 334 338 332 327 324 321 321 320 317 311 307 304 297 287 273 258 256 258 253 245 240 237 235 233 231 231 233 235 234 234 234 235 235 236 237 235 229 229 235 239 240 239 239 238 237 237 238 239 240 242 246 248 251 253 255 254 254 254 254 253 253 251 249 247 246 245
285 287 291 293 290 289 290 293 295 296 297 300 308 316 319 318 318 319 325 332 334 328 322 319 317 318 320 317 311 307 305 300 293 282 266 258 259 259 253 246 240 238 235 231 229 229 233 235 236 234 232 232 234 233 230 224 220 226 233 236 236 236 235 233 233 235 237 238 240 243 245 246 247 247 248 249 249 247 246 247 249 249 248 247 246
285 285 286 287 285 285 285 286 288 289 290 292 300 309 316 318 317 319 324 326 326 324 319 315 314 316 319 318 313 308 303 299 295 289 279 270 265 267 269 265 255 246 240 236 233 230 230 234 237 233 225 224 225 226 229 230 227 227 229 231 233 236 236 235 237 237 235 235 237 237 237 238 237 236 239 240 239 237 236 237 241 243 243 243 242
283 283 283 282 282 282 282 282 283 284 282 283 292 302 310 314 314 317 319 318 320 321 316 311 312 317 320 319 313 307 302 299 296 294 291 287 280 275 276 279 275 264 253 245 240 238 236 236 240 241 233 227 228 231 236 239 237 235 236 237 240 243 243 243 245 240 231 229 232 233 232 231 228 228 230 232 232 229 225 226 231 233 233 232 233
282 282 281 280 280 281 281 280 280 279 277 277 284 295 302 306 308 311 312 312 312 311 308 308 311 315 319 318 311 305 302 301 299 296 296 297 296 291 284 285 290 285 270 255 247 245 244 242 244 248 247 244 244 245 247 247 245 243 243 244 246 248 248 248 247 239 228 225 228 230 231 231 229 228 229 230 230 229 224 222 225 227 228 227 227